www.pogodaiklimat.ru

ПОГОДА в Маршалле, MI

  • Прогноз погоды в Маршалле
  • Монитор погоды в Маршалле
  • Климат в Маршалле

АРХИВ ПОГОДЫ в Маршалле

Время (UTC), дата Ветер
(напр.,м/с)
 
Видим.   Явления Облачность Т
(С)
Тd
(С)
f
(%)
Тe
(С)
Тes
(С)
Комфортность

P
(гПа)

Po
(гПа)
Тmin
(С)
Tmax
(С)
R
(мм)
SD
(см)
14:36 22.05 ЮВ  16 км    10/5 360 м
[средняя] 
+13.7  +13.7  100  +11  +12      980.4         
14:55 22.05 ЮВ  3
{4} 
16 км    10/8 360 м
[средняя] 
+13.8  +13.8  100  +12  +13      980.7         
15:15 22.05 ЮВ  16 км    10/10 360 м  +15.1  +15.1  100  +14  +14      980.7         
15:35 22.05 Ю  16 км    10/10 420 м  +15.2  +14.9  98  +14  +14      981.4         
15:36 22.05 Ю  16 км    10/10 420 м  +15.3  +15.2  99  +14  +14      981.4         
15:55 22.05 Ю  16 км    10/10 420 м  +16.2  +15.6  96  +16  +16      981.4         
16:15 22.05 Ю  16 км    10/10 480 м  +17.2  +15.6  90  +17  +17      981.7         
16:35 22.05 ЮВ  16 км    10/10 570 м  +17.7  +15.6  88  +17  +17      981.4         
16:55 22.05 ЮВ  16 км    10/10 630 м  +18.2  +15.5  84  +18  +18      981.0  +10.6  +18.4  2.3   
16:56 22.05 ЮВ  16 км    10/10 630 м  +18.2  +15.7  85  +18  +18      981.0  +10.6  +18.4  2.3   
17:15 22.05 Ю  5
{7} 
16 км    10/10 630 м  +18.6  +16.1  85  +19  +19      980.7         
17:35 22.05 Ю  16 км    8/8 630 м  +19.3  +15.9  81  +21  +22  комфорт    980.7         
17:55 22.05 Ю  16 км    5/5 630 м  +19.9  +15.7  77  +22  +29  комфорт    980.4         
17:56 22.05 Ю  16 км    5/5 630 м  +20.0  +15.8  77  +23  +30  комфорт    980.4         
18:15 22.05 Ю  16 км    ясно  +20.7  +15.6  73  +24  +37  комфорт    980.4         
18:16 22.05 Ю  16 км    ясно  +20.7  +15.5  72  +24  +37  комфорт    980.4         
18:35 22.05 Ю  16 км    ясно  +21.1  +15.6  71  +24  +34  комфорт    980.1         
18:55 22.05 Ю  16 км    ясно  +21.6  +15.5  68  +25  +37  комфорт    980.4         
19:15 22.05 Ю  16 км    ясно  +22.0  +15.0  64  +25  +35  комфорт    980.4         
19:16 22.05 Ю  16 км    ясно  +22.0  +15.1  65  +26  +36  душно    980.4         
19:35 22.05 Ю  16 км    ясно  +22.3  +14.9  63  +26  +36  жарко    980.4         
19:36 22.05 Ю  16 км    ясно  +22.4  +15.0  63  +26  +38  жарко    980.4         
19:55 22.05 Ю  16 км    ясно  +23.0  +15.4  62  +27  +35  душно    980.4         
20:15 22.05 Ю  16 км    ясно  +23.2  +15.8  63  +28  +35  душно    980.1         
20:35 22.05 Ю  16 км    ясно  +23.2  +15.1  60  +27  +33  душно    980.1         
20:36 22.05 Ю  16 км    ясно  +23.2  +15.1  60  +27  +33  душно    980.1         
20:55 22.05 Ю  16 км    ясно  +23.5  +15.3  60  +26  +32  жарко    980.4         
20:56 22.05 Ю  16 км    ясно  +23.5  +15.2  60  +26  +32  жарко    980.4         
21:15 22.05 Ю  16 км    ясно  +23.6  +15.6  61  +27  +31  жарко    980.4         
21:35 22.05 Ю  16 км    ясно  +23.5  +16.1  63  +27  +32  душно    980.4         
21:36 22.05 Ю  16 км    ясно  +23.5  +16.2  64  +27  +33  душно    980.4         
21:55 22.05 Ю  16 км    ясно  +23.5  +16.2  64  +27  +31  душно    980.4         
21:56 22.05 Ю  16 км    ясно  +23.5  +16.3  64  +27  +32  душно    980.4         
22:15 22.05 Ю  16 км    ясно  +23.2  +16.6  66  +28  +30  душно    980.4         
22:35 22.05 Ю  16 км    ясно  +23.1  +17.0  69  +28  +31  душно    980.4         
22:55 22.05 Ю  16 км    ясно  +23.0  +16.9  69  +28  +30  душно    980.4  +18.2  +23.6     
22:56 22.05 ЮВ  16 км    ясно  +23.0  +16.9  69  +28  +30  душно    980.4  +18.2  +23.6     
23:15 22.05 ЮВ  16 км    ясно  +22.7  +16.6  68  +27  +28  душно    980.1         
23:16 22.05 ЮВ  16 км    ясно  +22.7  +16.6  68  +27  +28  душно    980.1         
23:35 22.05 Ю  16 км    ясно  +22.1  +16.6  71  +26  +27  душно    980.1         
23:55 22.05 Ю  16 км    ясно  +21.4  +16.8  75  +25  +26  комфорт    980.1         
00:15 23.05 ЮВ  16 км    ясно  +21.3  +16.6  75  +25  +25  комфорт    980.1         
00:16 23.05 Ю  16 км    ясно  +21.4  +16.6  74  +25  +25  комфорт    980.1         
00:35 23.05   16 км    ясно  +20.7  +16.7  78  +24  +24  комфорт    980.1         
00:36 23.05 ЮВ  16 км    ясно  +20.7  +16.7  78  +25  +25  комфорт    980.1         
00:55 23.05 ЮВ  16 км    ясно  +19.6  +17.0  85  +23  +23  комфорт    980.1         
00:56 23.05 Ю  16 км    ясно  +19.5  +17.0  85  +22  +22  комфорт    980.1         
01:15 23.05 Ю  16 км    ясно  +19.6  +17.0  85  +22  +22  комфорт    980.4         

 

Местоположение метеостанции Brooks Field Airport: широта 42.2511 долгота -84.9556 высота над уровнем моря 287 м.

В архиве по умолчанию представлена погода в Маршалле за последние 1-2 суток. Обновление информации о фактической погоде в базе происходит ежечасно! Архивные данные за месяц целиком и за предыдущие месяцы Вы можете получить, выбрав интересующий диапазон дат из раскрывающегося списка и нажав кнопку "Ввод!".

Внимание! Архив погоды МЕТАР в базе сайта хранится не более 60 дней. Нет смысла пытаться выбрать более раннюю дату.

Внимание! Время в таблицах - всемирное. Для получения местного времени необходимо прибавить поправку, которая в Маршалле равна -5 ч.

Ветер - указаны скорость ветра в м/с и направление, откуда дует ветер: С - северный, СВ - северо-восточный, В - восточный, ЮВ - юго-восточный, Ю - южный, ЮЗ - юго-западный, З - западный, СЗ - северо-западный.
Видимость - горизонтальная дальность видимости в метрах или километрах. При видимости от 1 до 10 км при отсутствии осадков обычно наблюдается дымка, при ухудшении видимости до 1 км и менее - туман. В сухую погоду видимость может ухудшаться дымом, пылью или мглою.
Атмосферные явления - указаны явления, наблюдавшиеся в указанный момент времени.
Облачность - указаны через наклонную черту верхняя и нижняя облачность в баллах и высота нижней границы облаков в метрах. Внимание: облачность, как и прочие метеорологические величины в США измеряются автоматическими метеостанциями. Указанные значения в баллах носят условный характер и показывают процент времени, в течение которого, в среднем, лазерный луч высотомера отражался от облаков обратно.
T - Температура воздуха - температура, измеренная на высоте 2 м над землей.
Td - Температура точки росы - температура, при понижении до которой содержащийся в воздухе водяной пар достигнет насыщения.
f - Относительная влажность воздуха - влажноcть воздуха, измеренная на высоте 2 м над землей.
Te - Эффективная температура - температура, которую ощущает одетый по сезону человек в тени. Характеристика душности погоды. При расчете учитывается влияние влажности воздуха и скорости ветра на теплоощущения человека.
Tes - Эффективная температура на солнце - температура, которую ощущает человек, с поправкой на солнечный нагрев. Характеристика знойности погоды. Зависит от высоты солнца над горизонтом, облачности и скорости ветра. Ночью, в пасмурную погоду, а также при ветре 12 м/с и более поправка равна нулю.
P - Атмосферное давление - приведенное к уровню моря атмосферное давление.
Po - Атмосферное давление - измеренное на уровне метеостанции атмосферное давление.
Tmin - Минимальная температура - минимум температуры воздуха на высоте 2 м над землей.
Tmax - Максимальная температура - максимум температуры воздуха на высоте 2 м над землей.
R - Количество осадков - Количество выпавших осадков за 3 или 6 часов, мм.
SD - Снежный покров - Высота снежного покрова, см.